GW4117 Weather Reports


time (UTC)temp
C
wind
direction
speed
KPH
gust
KPH
rain 1hr
cm
rain 24hr
cm
rain mn
cm
humidity
%
barometer
mb
20260503033036 11 160 14.5 19.3 0.08 0.08 0.08 74 1014.4
20260503031532 13 254 30.6 48.3 0.00 0.00 0.00 63 1015.6
20260503030048 13 306 6.4 12.9 0.00 0.00 0.00 47 1013.8
20260503024534 13 360 3.2 6.4 0.00 0.00 0.00 45 1013.5
20260503023030 14 0 0.0 0.0 0.00 0.00 0.00 42 1013.3
20260503021528 16 0 0.0 0.0 0.00 0.00 0.00 40 1013.3
20260503020032 16 0 0.0 4.8 0.00 0.00 0.00 40 1013.3
20260503014530 17 212 1.6 9.7 0.00 0.00 0.00 39 1013.4
20260503013029 18 0 0.0 4.8 0.00 0.00 0.00 37 1013.5
20260503011532 18 0 1.6 8.0 0.00 0.00 0.00 36 1013.5
20260503010031 18 252 1.6 19.3 0.00 0.00 0.00 36 1013.5
20260503004530 19 291 1.6 9.7 0.00 0.00 0.00 36 1013.7
20260503003031 19 202 4.8 9.7 0.00 0.00 0.00 37 1013.8
20260503001532 18 198 4.8 9.7 0.00 0.00 0.00 39 1013.9
20260503000033 18 89 1.6 4.8 0.00 0.00 0.00 38 1014.0
20260502234531 18 340 4.8 9.7 0.00 0.00 0.00 38 1014.2
20260502233030 18 326 3.2 9.7 0.00 0.00 0.00 36 1014.3
20260502231530 19 35 1.6 8.0 0.00 0.00 0.00 36 1014.4
20260502230032 18 36 4.8 12.9 0.00 0.00 0.00 38 1014.7
20260502224530 18 84 8.0 17.7 0.00 0.00 0.00 38 1014.9
20260502223029 18 71 14.5 22.5 0.00 0.00 0.00 37 1015.1
20260502221529 19 165 8.0 14.5 0.00 0.00 0.00 37 1015.2
20260502220028 18 116 3.2 11.3 0.00 0.00 0.00 39 1015.4
20260502214528 18 162 8.0 17.7 0.00 0.00 0.00 40 1015.7
20260502213039 17 132 9.7 19.3 0.00 0.00 0.00 41 1016.0
20260502211532 17 74 9.7 16.1 0.00 0.00 0.00 42 1016.1
20260502210029 17 81 11.3 24.1 0.00 0.00 0.00 42 1016.2
20260502204531 17 94 6.4 20.9 0.00 0.00 0.00 42 1016.2
20260502203029 17 80 12.9 22.5 0.00 0.00 0.00 42 1016.3
20260502201532 17 31 6.4 25.7 0.00 0.00 0.00 41 1016.4
20260502200032 18 69 14.5 20.9 0.00 0.00 0.00 38 1016.6
20260502194530 17 53 1.6 19.3 0.00 0.00 0.00 41 1016.7
20260502193030 17 316 6.4 16.1 0.00 0.00 0.00 42 1017.0
20260502191529 17 49 9.7 20.9 0.00 0.00 0.00 41 1017.1
20260502190030 17 345 14.5 20.9 0.00 0.00 0.00 41 1017.3
20260502184529 17 276 4.8 12.9 0.00 0.00 0.00 41 1017.4
20260502183030 17 268 8.0 14.5 0.00 0.00 0.00 41 1017.3
20260502181541 17 275 4.8 12.9 0.00 0.00 0.00 42 1017.4
20260502163028 16 259 3.2 17.7 0.00 0.00 0.00 44 1017.8
20260502161530 15 271 8.0 14.5 0.00 0.00 0.00 45 1017.9
20260502151534 13 281 8.0 14.5 0.00 0.00 0.00 49 1017.9
20260502123031 9 44 20.9 27.4 0.00 0.00 0.00 56 1016.4
20260502121530 9 49 24.1 30.6 0.00 0.00 0.00 55 1016.2
20260502114532 10 53 29.0 37.0 0.00 0.00 0.00 54 1015.8
20260502113032 10 49 30.6 37.0 0.00 0.00 0.00 53 1015.6
20260502111533 10 43 25.7 32.2 0.00 0.00 0.00 53 1015.2
20260502110032 10 49 22.5 29.0 0.00 0.00 0.00 53 1015.1
20260502104530 7 62 14.5 22.5 0.00 0.00 0.00 60 1014.9
20260502103028 6 24 4.8 8.0 0.00 0.00 0.00 56 1014.9
20260502101536 6 340 6.4 9.7 0.00 0.00 0.00 57 1014.7
20260502091528 8 5 8.0 12.9 0.00 0.00 0.00 49 1014.1
20260502071532 6 327 4.8 8.0 0.00 0.00 0.00 49 1013.7
20260502070032 8 281 1.6 4.8 0.00 0.00 0.00 45 1013.7
20260502064546 9 281 3.2 6.4 0.00 0.00 0.00 43 1013.6
20260502063036 8 5 3.2 6.4 0.00 0.00 0.00 45 1013.4
20260502061530 9 5 4.8 8.0 0.00 0.00 0.00 43 1013.5
20260502060030 10 12 6.4 16.1 0.00 0.00 0.00 42 1013.5
20260502054531 10 9 14.5 17.7 0.00 0.00 0.00 41 1013.5
20260502053032 10 5 16.1 22.5 0.00 0.00 0.00 40 1013.4
20260502051537 10 351 17.7 20.9 0.00 0.00 0.00 40 1013.5
20260502050031 10 352 12.9 17.7 0.00 0.00 0.00 39 1013.4
20260502044536 11 11 6.4 12.9 0.00 0.00 0.00 37 1013.4
20260502043030 12 17 3.2 6.4 0.00 0.00 0.00 35 1013.4
20260502041530 12 321 0.0 11.3 0.00 0.00 0.00 33 1013.3
20260502040040 12 341 1.6 4.8 0.00 0.00 0.00 32 1013.2
20260502034530 12 0 1.6 3.2 0.00 0.00 0.00 31 1013.1